Stündliche Wetter Kyzyltan

Heute, 11 Mai, Dienstag

Zeit Temperatur Niederschläge Wind Luftdruck Luftfeuchtigkeit
00:00 +18°C° 0 mm 1 m/S 695 mmHg 77%
01:00 +16°C° 0 mm 1 m/S 695 mmHg 78%
02:00 +16°C° 0 mm 1 m/S 695 mmHg 79%
03:00 +15°C° 0 mm 1 m/S 695 mmHg 81%
04:00 +15°C° 0 mm 1 m/S 695 mmHg 83%
05:00 +14°C° 0 mm 1 m/S 695 mmHg 83%
06:00 +16°C° 0 mm 1 m/S 696 mmHg 78%
07:00 +18°C° 0 mm 1 m/S 697 mmHg 73%
08:00 +19°C° 0 mm 1 m/S 697 mmHg 68%
09:00 +20°C° 0 mm 2 m/S 697 mmHg 62%
10:00 +21°C° 0 mm 2 m/S 698 mmHg 55%
11:00 +22°C° 0 mm 3 m/S 698 mmHg 47%
12:00 +24°C° 0 mm 3 m/S 698 mmHg 43%
13:00 +23°C° 0 mm 4 m/S 698 mmHg 38%
14:00 +25°C° 0 mm 4 m/S 698 mmHg 34%
15:00 +25°C° 0 mm 4 m/S 698 mmHg 35%
16:00 +23°C° 0 mm 4 m/S 698 mmHg 37%
17:00 +23°C° 0 mm 4 m/S 698 mmHg 38%
18:00 +21°C° 0 mm 3 m/S 698 mmHg 43%
19:00 +19°C° 0 mm 3 m/S 698 mmHg 48%
20:00 +17°C° 0 mm 2 m/S 697 mmHg 53%
21:00 +16°C° 0 mm 2 m/S 697 mmHg 53%
22:00 +16°C° 0 mm 2 m/S 697 mmHg 53%
23:00 +15°C° 0 mm 2 m/S 697 mmHg 52%

Morgen, 12 Mai, Mittwoch

Zeit Temperatur Niederschläge Wind Luftdruck Luftfeuchtigkeit
00:00 +15°C° 0 mm 2 m/S 696 mmHg 52%
01:00 +15°C° 0 mm 2 m/S 696 mmHg 52%
02:00 +14°C° 0 mm 2 m/S 696 mmHg 52%
03:00 +14°C° 0 mm 2 m/S 696 mmHg 53%
04:00 +14°C° 0 mm 2 m/S 696 mmHg 54%
05:00 +14°C° 0 mm 2 m/S 696 mmHg 54%
06:00 +16°C° 0 mm 2 m/S 696 mmHg 52%
07:00 +19°C° 0 mm 1 m/S 696 mmHg 49%
08:00 +20°C° 0 mm 1 m/S 697 mmHg 46%
09:00 +22°C° 0 mm 1 m/S 697 mmHg 43%
10:00 +23°C° 0 mm 2 m/S 697 mmHg 40%
11:00 +24°C° 0 mm 2 m/S 697 mmHg 37%
12:00 +25°C° 0 mm 2 m/S 697 mmHg 37%
13:00 +25°C° 0 mm 3 m/S 697 mmHg 36%
14:00 +26°C° 0 mm 3 m/S 697 mmHg 35%
15:00 +25°C° 0 mm 3 m/S 696 mmHg 38%
16:00 +25°C° 0 mm 4 m/S 696 mmHg 41%
17:00 +25°C° 0 mm 5 m/S 696 mmHg 44%
18:00 +21°C° 0 mm 4 m/S 695 mmHg 50%
19:00 +19°C° 0 mm 4 m/S 695 mmHg 56%
20:00 +17°C° 0 mm 3 m/S 695 mmHg 62%
21:00 +17°C° 0 mm 3 m/S 694 mmHg 61%
22:00 +16°C° 0 mm 3 m/S 694 mmHg 60%
23:00 +16°C° 0 mm 2 m/S 694 mmHg 59%

übermorgen, 13 Mai, Donnerstag

Zeit Temperatur Niederschläge Wind Luftdruck Luftfeuchtigkeit
00:00 +15°C° 0 mm 2 m/S 694 mmHg 58%
01:00 +15°C° 0 mm 2 m/S 694 mmHg 57%
02:00 +15°C° 0 mm 2 m/S 693 mmHg 56%
03:00 +15°C° 0 mm 2 m/S 694 mmHg 57%
04:00 +14°C° 0 mm 2 m/S 694 mmHg 57%
05:00 +14°C° 0 mm 2 m/S 694 mmHg 58%
06:00 +15°C° 0 mm 2 m/S 694 mmHg 56%
07:00 +17°C° 0 mm 2 m/S 695 mmHg 54%
08:00 +19°C° 0 mm 2 m/S 695 mmHg 51%
09:00 +20°C° 0 mm 2 m/S 696 mmHg 49%
10:00 +21°C° 0 mm 2 m/S 696 mmHg 47%
11:00 +23°C° 0 mm 2 m/S 696 mmHg 45%
12:00 +24°C° 0 mm 3 m/S 696 mmHg 44%
13:00 +25°C° 0 mm 3 m/S 696 mmHg 43%
14:00 +26°C° 0 mm 3 m/S 696 mmHg 42%
15:00 +25°C° 0 mm 3 m/S 695 mmHg 42%
16:00 +25°C° 0 mm 3 m/S 695 mmHg 43%
17:00 +25°C° 0 mm 3 m/S 695 mmHg 43%
18:00 +22°C° 0 mm 3 m/S 695 mmHg 49%
19:00 +19°C° 0 mm 2 m/S 694 mmHg 54%
20:00 +17°C° 0 mm 2 m/S 694 mmHg 60%
21:00 +17°C° 0 mm 2 m/S 694 mmHg 61%
22:00 +16°C° 0 mm 2 m/S 694 mmHg 62%
23:00 +16°C° 0 mm 2 m/S 694 mmHg 63%

14 Mai, Freitag

Zeit Temperatur Niederschläge Wind Luftdruck Luftfeuchtigkeit
00:00 +16°C° 0 mm 2 m/S 694 mmHg 63%
01:00 +16°C° 0 mm 2 m/S 694 mmHg 63%
02:00 +16°C° 0 mm 2 m/S 694 mmHg 63%
03:00 +15°C° 0 mm 2 m/S 694 mmHg 62%
04:00 +15°C° 0 mm 2 m/S 694 mmHg 62%
05:00 +15°C° 0 mm 2 m/S 694 mmHg 62%
06:00 +16°C° 0 mm 2 m/S 695 mmHg 58%
07:00 +19°C° 0 mm 1 m/S 695 mmHg 53%
08:00 +21°C° 0 mm 1 m/S 696 mmHg 49%
09:00 +21°C° 0 mm 2 m/S 696 mmHg 47%
10:00 +23°C° 0 mm 2 m/S 696 mmHg 45%
11:00 +24°C° 0 mm 2 m/S 696 mmHg 43%
12:00 +25°C° 0 mm 2 m/S 696 mmHg 42%
13:00 +26°C° 0 mm 3 m/S 696 mmHg 40%
14:00 +27°C° 0 mm 3 m/S 696 mmHg 39%
15:00 +27°C° 0 mm 3 m/S 696 mmHg 39%
16:00 +27°C° 0 mm 3 m/S 696 mmHg 39%
17:00 +27°C° 0 mm 3 m/S 695 mmHg 40%
18:00 +24°C° 0 mm 2 m/S 695 mmHg 46%
19:00 +21°C° 0 mm 2 m/S 694 mmHg 52%
20:00 +19°C° 0 mm 2 m/S 694 mmHg 59%
21:00 +18°C° 0 mm 2 m/S 694 mmHg 59%
22:00 +18°C° 0 mm 2 m/S 694 mmHg 60%
23:00 +18°C° 0 mm 2 m/S 694 mmHg 60%

15 Mai, Samstag

Zeit Temperatur Niederschläge Wind Luftdruck Luftfeuchtigkeit
00:00 +17°C° 0 mm 2 m/S 693 mmHg 60%
01:00 +17°C° 0 mm 2 m/S 693 mmHg 60%
02:00 +17°C° 0 mm 2 m/S 693 mmHg 60%
03:00 +17°C° 0 mm 2 m/S 693 mmHg 60%
04:00 +17°C° 0 mm 2 m/S 693 mmHg 59%
05:00 +17°C° 0 mm 2 m/S 693 mmHg 58%
06:00 +18°C° 0 mm 2 m/S 694 mmHg 55%
07:00 +21°C° 0 mm 1 m/S 694 mmHg 51%
08:00 +23°C° 0 mm 1 m/S 695 mmHg 48%
09:00 +24°C° 0 mm 1 m/S 695 mmHg 46%
10:00 +25°C° 0 mm 1 m/S 695 mmHg 44%
11:00 +26°C° 0 mm 2 m/S 695 mmHg 42%
12:00 +27°C° 0 mm 2 m/S 695 mmHg 40%
13:00 +28°C° 0 mm 2 m/S 695 mmHg 38%
14:00 +29°C° 0 mm 3 m/S 694 mmHg 37%
15:00 +28°C° 0 mm 3 m/S 694 mmHg 37%
16:00 +28°C° 0 mm 3 m/S 694 mmHg 38%
17:00 +28°C° 0 mm 3 m/S 694 mmHg 39%
18:00 +26°C° 0 mm 2 m/S 693 mmHg 46%
19:00 +23°C° 0 mm 2 m/S 693 mmHg 53%
20:00 +20°C° 0 mm 2 m/S 693 mmHg 60%
21:00 +20°C° 0 mm 2 m/S 692 mmHg 59%
22:00 +19°C° 0 mm 2 m/S 692 mmHg 58%
23:00 +18°C° 0 mm 3 m/S 692 mmHg 58%

16 Mai, Sonntag

Zeit Temperatur Niederschläge Wind Luftdruck Luftfeuchtigkeit
00:00 +18°C° 0 mm 3 m/S 692 mmHg 55%
01:00 +18°C° 0 mm 3 m/S 692 mmHg 53%
02:00 +18°C° 0 mm 3 m/S 692 mmHg 51%
03:00 +18°C° 0 mm 3 m/S 692 mmHg 50%
04:00 +17°C° 0 mm 3 m/S 692 mmHg 49%
05:00 +17°C° 0 mm 2 m/S 692 mmHg 48%
06:00 +19°C° 0 mm 2 m/S 693 mmHg 47%
07:00 +21°C° 0 mm 2 m/S 693 mmHg 46%
08:00 +23°C° 0 mm 2 m/S 694 mmHg 45%
09:00 +25°C° 0 mm 2 m/S 694 mmHg 43%
10:00 +26°C° 0 mm 2 m/S 694 mmHg 41%
11:00 +27°C° 0 mm 2 m/S 695 mmHg 38%
12:00 +28°C° 0 mm 2 m/S 695 mmHg 37%
13:00 +29°C° 0 mm 3 m/S 694 mmHg 35%
14:00 +29°C° 0 mm 3 m/S 694 mmHg 34%
15:00 +29°C° 0.1 mm 3 m/S 694 mmHg 36%
16:00 +28°C° 0.1 mm 4 m/S 694 mmHg 39%
17:00 +28°C° 0.1 mm 4 m/S 694 mmHg 42%
18:00 +25°C° 0 mm 4 m/S 694 mmHg 47%
19:00 +22°C° 0 mm 4 m/S 694 mmHg 52%
20:00 +19°C° 0 mm 3 m/S 693 mmHg 57%
21:00 +19°C° 0 mm 3 m/S 693 mmHg 54%
22:00 +19°C° 0 mm 3 m/S 693 mmHg 52%
23:00 +18°C° 0 mm 3 m/S 693 mmHg 49%
Mehr zeigen

Wir brauchen deine Erlaubnis

Meteoprog und unser Service Anbieter werden persönliche Daten aufbewahren, so wie Cookies, Geräte Bezeichnung oder ähnliche Technologien von deinem Gerät und Prozess, so wie Persönliche Daten Inhalte und Werbungen, genauso wie social Media und den Verkehr zu analysieren.

  • Aufbewahrung und/oder Zugang zu deiner Geräte Informationen.

    Cookies, Geräte Bezeichnung oder andere Informationen, können aufbewahrt oder Zugang zu deinem Gerät erhalten, für den Grund, der oben angegeben wird.

  • Personalisierte Werbung und Inhalte, Messungen, Einblick in das Publikum und Produkt Entwicklung.

    Werbungen und Inhalte können personalisiert werden, basierend auf ein Profil. Mehr Daten können besser personalisierte Werbungen und Inhalte hinzufügen. Werbung und Inhalte können gezeigt und gemessen werden. Einblicke über das Publikum, welche die Werbung gesehen haben und den Inhalt, können abgeleitet werden. So wie Daten können genutzt werden, um es zu verbessern oder die Benutzer Erfahrung zu verbessern das System und die Software.

Wenn du “Ich stimme zu” klickst, erlaubst du uns, die Cookies zu benutzen die Geräte Bezeichnung, den Web oder ähnliche Technologien zu benutzen. Deine Settings, können in deinem Gerät bei deinem Browser geändert werden.

Für den bestimmten Zweck, berechtigten Interessen beruhen darauf, mehr als auf den Inhalt. Du kannst mehr darüber in unseren Privaten und Cookie Politik lesen.